Pratt, KS

11:40 AM CDT on August 31, 2016 (GMT -0500)
Pratt Industrial

Weather History for KPTT - August, 2014

Change the Weather History Date:

Saturday, August 2, 2014

  Actual Average (KP28) Record (KP28)
Temperature  
Mean Temperature 72 °F 82 °F  
Max Temperature 86 °F 95 °F 113 °F (2011)
Min Temperature 57 °F 70 °F 54 °F (1913)
Degree Days  
Heating Degree Days 0 0  
Month to date heating degree days 0  
Since 1 June heating degree days 3  
Since 1 July heating degree days 0  
Cooling Degree Days 6 17  
Month to date cooling degree days 34  
Year to date cooling degree days 1071  
Since 1 June cooling degree days 915  
Growing Degree Days 22 (Base 50)    
Moisture  
Dew Point 56 °F    
Average Humidity 58    
Maximum Humidity 88    
Minimum Humidity 27    
Precipitation  
Precipitation 0.00 in 0.08 in 2.25 in (1927)
Month to date precipitation 0.16  
Year to date precipitation 17.39  
Snow  
Snow 0.00 in 0.00 in - ()
Month to date snowfall 0.0  
Since 1 June snowfall 0.0  
Since 1 July snowfall 0.0  
Snow Depth -    
Sea Level Pressure  
Sea Level Pressure 30.14 in    
Wind  
Wind Speed 5 mph (NE)    
Max Wind Speed 9 mph    
Max Gust Speed -    
Visibility 10 miles    
Events      
T = Trace of Precipitation, MM = Missing Value Source: NWS Daily Summary

Daily Weather History Graph

Daily Weather History Graph

Search for Another Location

Airport or City:

Trip Planner

Search our weather history database for the weather conditions in past years. The results will help you decide how hot, cold, wet, or windy it might be!

Date:

Astronomy

Aug. 02, 2014 Rise Set
Actual Time 6:39 AM CDT 8:42 PM CDT
Civil Twilight 6:10 AM CDT 9:11 PM CDT
Nautical Twilight 5:35 AM CDT 9:46 PM CDT
Astronomical Twilight 4:56 AM CDT 10:24 PM CDT
Moon 12:54 PM CDT (8/2) No Moon Set
Length of Visible Light 15h 00m
Length of Day
14h 02m
Waxing Crescent, 37% of the Moon is Illuminated
Aug 2
Waxing Crescent
Aug 3
First Quarter
Aug 10
Full
Aug 17
Last Quarter
Aug 25
New

Hourly Weather History & Observations

Time (CDT) Temp. Heat Index Dew Point Humidity Pressure Visibility Wind Dir Wind Speed Gust Speed Precip Events Conditions
12:35 AM 71.6 °F - 51.8 °F 50% 30.12 in 10.0 mi NE 4.6 mph - N/A   Clear
1:15 AM 66.2 °F - 55.4 °F 68% 30.12 in 10.0 mi North 4.6 mph - N/A   Clear
1:35 AM 64.4 °F - 55.4 °F 73% 30.12 in 10.0 mi North 4.6 mph - N/A   Clear
1:55 AM 64.4 °F - 55.4 °F 73% 30.12 in 10.0 mi North 4.6 mph - N/A   Clear
2:15 AM 64.4 °F - 55.4 °F 73% 30.12 in 10.0 mi North 4.6 mph - N/A   Clear
2:35 AM 64.4 °F - 55.4 °F 73% 30.12 in 10.0 mi Calm Calm - N/A   Clear
2:55 AM 64.4 °F - 53.6 °F 68% 30.12 in 10.0 mi Calm Calm - N/A   Clear
3:35 AM 64.4 °F - 51.8 °F 64% 30.12 in 10.0 mi Calm Calm - N/A   Clear
4:15 AM 60.8 °F - 53.6 °F 77% 30.12 in 10.0 mi North 5.8 mph - N/A   Clear
4:35 AM 59.0 °F - 53.6 °F 82% 30.12 in 10.0 mi North 6.9 mph - N/A   Clear
4:55 AM 59.0 °F - 53.6 °F 82% 30.12 in 10.0 mi North 6.9 mph - N/A   Clear
5:15 AM 59.0 °F - 53.6 °F 82% 30.12 in 10.0 mi North 5.8 mph - N/A   Clear
5:35 AM 59.0 °F - 53.6 °F 82% 30.12 in 10.0 mi NNW 6.9 mph - N/A   Clear
5:55 AM 59.0 °F - 53.6 °F 82% 30.12 in 10.0 mi NNW 5.8 mph - N/A   Clear
6:15 AM 59.0 °F - 53.6 °F 82% 30.13 in 10.0 mi NNW 5.8 mph - N/A   Clear
6:35 AM 59.0 °F - 53.6 °F 82% 30.14 in 10.0 mi NNW 5.8 mph - N/A   Clear
6:55 AM 57.2 °F - 53.6 °F 88% 30.14 in 10.0 mi NW 5.8 mph - N/A   Clear
7:15 AM 59.0 °F - 53.6 °F 82% 30.16 in 10.0 mi NW 5.8 mph - N/A   Clear
7:35 AM 59.0 °F - 55.4 °F 88% 30.16 in 10.0 mi NNW 5.8 mph - N/A   Clear
7:55 AM 60.8 °F - 55.4 °F 82% 30.17 in 10.0 mi NNW 6.9 mph - N/A   Clear
8:15 AM 62.6 °F - 59.0 °F 88% 30.17 in 10.0 mi NNW 6.9 mph - N/A   Clear
8:35 AM 66.2 °F - 60.8 °F 83% 30.17 in 10.0 mi NNW 5.8 mph - N/A   Clear
8:55 AM 68.0 °F - 60.8 °F 78% 30.17 in 10.0 mi NNW 4.6 mph - N/A   Clear
9:15 AM 71.6 °F - 62.6 °F 73% 30.17 in 10.0 mi NNW 5.8 mph - N/A   Clear
9:35 AM 73.4 °F - 62.6 °F 69% 30.18 in 10.0 mi North 5.8 mph - N/A   Clear
9:55 AM 73.4 °F - 62.6 °F 69% 30.18 in 10.0 mi North 5.8 mph - N/A   Clear
10:15 AM 77.0 °F - 62.6 °F 61% 30.18 in 10.0 mi North 6.9 mph - N/A   Clear
10:35 AM 77.0 °F - 62.6 °F 61% 30.18 in 10.0 mi North 6.9 mph - N/A   Clear
10:55 AM 78.8 °F - 60.8 °F 54% 30.18 in 10.0 mi NNE 5.8 mph - N/A   Clear
11:15 AM 78.8 °F - 59.0 °F 51% 30.19 in 10.0 mi NNE 6.9 mph - N/A   Clear
11:35 AM 78.8 °F - 60.8 °F 54% 30.19 in 10.0 mi North 6.9 mph - N/A   Clear
12:15 PM 80.6 °F 80.5 °F 55.4 °F 42% 30.18 in 10.0 mi NNE 5.8 mph - N/A   Clear
12:35 PM 82.4 °F 81.7 °F 55.4 °F 39% 30.18 in 10.0 mi North 5.8 mph - N/A   Clear
12:55 PM 82.4 °F 81.7 °F 55.4 °F 39% 30.17 in 10.0 mi East 5.8 mph - N/A   Clear
1:15 PM 82.4 °F 81.7 °F 55.4 °F 39% 30.17 in 10.0 mi North 8.1 mph - N/A   Clear
1:55 PM 86.0 °F - 50.0 °F 29% 30.16 in 10.0 mi NNE 5.8 mph - N/A   Clear
2:15 PM 86.0 °F - 51.8 °F 31% 30.16 in 10.0 mi NNE 6.9 mph - N/A   Clear
2:35 PM 86.0 °F - 48.2 °F 27% 30.16 in 10.0 mi East 9.2 mph - N/A   Clear
2:55 PM 86.0 °F - 51.8 °F 31% 30.15 in 10.0 mi ENE 8.1 mph - N/A   Clear
3:15 PM 86.0 °F - 50.0 °F 29% 30.15 in 10.0 mi NE 8.1 mph - N/A   Clear
3:35 PM 86.0 °F - 51.8 °F 31% 30.14 in 10.0 mi ESE 5.8 mph - N/A   Clear
3:55 PM 86.0 °F - 50.0 °F 29% 30.13 in 10.0 mi ENE 6.9 mph - N/A   Clear
4:15 PM 86.0 °F - 51.8 °F 31% 30.13 in 10.0 mi SE 5.8 mph - N/A   Clear
4:35 PM 86.0 °F - 51.8 °F 31% 30.13 in 10.0 mi SE 5.8 mph - N/A   Clear
4:55 PM 86.0 °F - 50.0 °F 29% 30.12 in 10.0 mi East 5.8 mph - N/A   Clear
5:15 PM 86.0 °F 84.2 °F 53.6 °F 33% 30.12 in 10.0 mi SE 6.9 mph - N/A   Clear
5:35 PM 86.0 °F 84.2 °F 53.6 °F 33% 30.12 in 10.0 mi SE 5.8 mph - N/A   Clear
5:55 PM 86.0 °F 84.2 °F 53.6 °F 33% 30.12 in 10.0 mi SE 6.9 mph - N/A   Clear
6:35 PM 86.0 °F 84.2 °F 53.6 °F 33% 30.12 in 10.0 mi SSE 9.2 mph - N/A   Clear
6:55 PM 84.2 °F - 51.8 °F 33% 30.12 in 10.0 mi SSE 6.9 mph - N/A   Clear
7:15 PM 84.2 °F 82.8 °F 53.6 °F 35% 30.12 in 10.0 mi SSE 6.9 mph - N/A   Clear
7:35 PM 84.2 °F 82.8 °F 53.6 °F 35% 30.12 in 10.0 mi SSE 5.8 mph - N/A   Clear
7:55 PM 82.4 °F 81.7 °F 55.4 °F 39% 30.12 in 10.0 mi SE 6.9 mph - N/A   Clear
8:15 PM 80.6 °F 80.8 °F 57.2 °F 45% 30.13 in 10.0 mi SSE 5.8 mph - N/A   Clear
8:35 PM 80.6 °F 81.1 °F 59.0 °F 48% 30.13 in 10.0 mi SSE 4.6 mph - N/A   Clear
8:55 PM 77.0 °F - 60.8 °F 57% 30.13 in 10.0 mi SSE 3.5 mph - N/A   Clear
9:15 PM 75.2 °F - 60.8 °F 61% 30.13 in 10.0 mi South 3.5 mph - N/A   Clear
9:35 PM 75.2 °F - 60.8 °F 61% 30.14 in 10.0 mi SSE 4.6 mph - N/A   Clear
9:55 PM 77.0 °F - 60.8 °F 57% 30.14 in 10.0 mi South 4.6 mph - N/A   Clear
10:15 PM 73.4 °F - 60.8 °F 65% 30.15 in 10.0 mi South 5.8 mph - N/A   Clear
10:35 PM 69.8 °F - 62.6 °F 78% 30.16 in 10.0 mi South 6.9 mph - N/A   Clear
10:55 PM 69.8 °F - 62.6 °F 78% 30.15 in 10.0 mi South 4.6 mph - N/A   Clear
11:15 PM 69.8 °F - 62.6 °F 78% 30.16 in 10.0 mi South 5.8 mph - N/A   Clear
11:35 PM 69.8 °F - 62.6 °F 78% 30.16 in 10.0 mi SW 3.5 mph - N/A   Clear
11:55 PM 68.0 °F - 62.6 °F 83% 30.16 in 10.0 mi SSW 4.6 mph - N/A   Clear